Regional Weather Roundup
Issued by NWS Bismarck, ND

Home | Current Version | Previous Version | Text Only | Print | Product List | Glossary On
Versions: 1 2 3 4 5 6 7 8 9 10 11 12 13 14 15 16 17 18 19 20 21 22 23 24 25 26 27 28 29 30 31 32 33 34 35 36 37 38 39 40 41 42 43 44 45 46 47 48 49 50
000
ASUS43 KBIS 260120
RWRBIS

NWR BROADCAST TEXT
NATIONAL WEATHER SERVICE BISMARCK ND
800 PM CDT MON MAY 25 2015

NOTE: "FAIR" INDICATES FEW OR NO CLOUDS BELOW 12,000 FEET WITH NO
SIGNIFICANT WEATHER AND/OR OBSTRUCTIONS TO VISIBILITY.


CITY           SKY/WX    TMP DP  RH WIND       PRES   REMARKS
WILLISTON      MOSUNNY   70  47  43 SW12      29.87R
MINOT          MOSUNNY   74  45  35 SW5       29.80F
MINOT AFB      MOSUNNY   79  43  27 SW5       29.79S
BISMARCK       CLOUDY    67  55  65 SW8       29.85S
DICKINSON      PTSUNNY   64  47  53 S6        29.88S
GARRISON         N/A     72  50  45 W15       29.82F
HETTINGER ARPT CLOUDY    60  50  69 S8        29.92S
JAMESTOWN      MOSUNNY   65  56  72 S14       29.81S
BEACH          FAIR      63  48  59 S12       29.91S
CARRINGTON     FAIR      73  39  29 E9        29.80S
CROSBY         FAIR      75  39  27 SW6       29.83S
HARVEY         FAIR      75  36  23 SE5       29.79S
HAZEN          FAIR      68  50  52 W12       29.85S
LINTON         MOCLDY    63  59  88 SW7       29.87S
MANDAN         MOCLDY    64  59  82 SW8       29.86S
OAKES            N/A     63  55  77 CALM      29.84R
STANLEY        FAIR      70  45  40 SW7       29.86R
TIOGA          FAIR      68  41  37 SW9       29.88R
WATFORD CITY   FAIR      64  48  55 SW7       29.85S
$$

CITY           SKY/WX    TMP DP  RH WIND       PRES   REMARKS
GRAND FORKS    PTCLDY    69  51  52 S13       29.78S
GRAND FORKS AF MOSUNNY   69  54  59 S12G21    29.78S
DEVILS LAKE    MOSUNNY   72  43  35 S6        29.77S
FARGO          CLOUDY    63  55  75 E6        29.82R
CANDO          FAIR      73  39  29 SW7       29.78R
CAVALIER       FAIR      77  41  27 SE6       29.74S
GRAFTON        FAIR      70  54  56 S15G23    29.77R
LANGDON        CLOUDY    73  39  29 SW7G16    29.78R
ROLLA          MOCLDY    75  37  25 NW6       29.79S
WALHALLA         N/A     75  41  29 S3        29.74S
$$

CITY           SKY/WX    TMP DP  RH WIND       PRES   REMARKS
ABERDEEN       CLOUDY    66  50  56 NE9       29.82F
MOBRIDGE       CLOUDY    64  56  75 S6        29.84F
BUFFALO          N/A     57  52  83 SE5       29.87R
RAPID CITY     CLOUDY    55  53  93 NE14      29.89S
GLASGOW        SUNNY     72  46  39 S17       29.84S
SIDNEY         PTSUNNY   70  48  46 CALM      29.89R
WOLF POINT     MOSUNNY   73  46  38 S9        29.86S
GLENDIVE       MOSUNNY   64  48  55 SE8       29.90R
MILES CITY     CLOUDY    64  49  57 SE6       29.88F
BAKER          CLOUDY    62  49  62 SE14      29.92S
$$

CITY           SKY/WX    TMP DP  RH WIND       PRES   REMARKS
BILLINGS       MOSUNNY   68  46  45 SE10      29.88R
GREAT FALLS    MOSUNNY   68  42  38 E9        29.82F
REGINA         PTSUNNY   73  41  31 NW8       29.82S
ESTEVAN        CLOUDY    75  39  27 CALM      29.82S
$$




USA.gov is the U.S. government's official web portal to all federal, state and local government web resources and services.